sat.trackr.live / text

‹ back to catalog

STARLINK-1403

NORAD 45701 · 2020-035AW

PAYLOAD ACTIVE UNKNOWN

§ Identity

Operator
Country
US
Launch date
2020-06-04
Launch site
AFETR
Launch vehicle
Mass (kg)
RCS (m²)

Purposes: comms

External: N2YO · Heavens-Above · Gunter

§ Orbital elements

Epoch: 2026-05-25T00:12:51.509664Z

Period
93.96 min
Inclination
53.1556°
Eccentricity
0.0003041
Mean motion
15.32633349 rev/d
Perigee alt
465.9 km
Apogee alt
470.0 km
Semi-major
6,846.1 km
B*
2.0338e-3
RAAN
41.8995°
Arg perigee
113.8019°
Mean anomaly
246.3301°
Rev number
33,083

§ Raw data

STARLINK-14031 45701U 20035AW  26145.00892951  .00065188  00000+0  20338-2 0  99942 45701  53.1556  41.8995 0003041 113.8019 246.3301 15.32633349330836

JSON: /api/v1/satellites/45701 · /tle

For live sub-satellite position, see the globe view (requires WebGL).

§ Visibility from observer

Set your observer location to see the next 7 days of passes ≥ 10°. The values pass through the URL so the page stays shareable.

No JS? Fill the form by hand. The geolocation button needs JavaScript.